This demonstration page uses our WeatherBlox Daily Observations layout. Learn more.

Left ArrowRight Arrow

Hourly Observations for November 11, 2022

Temp ( °F °C ) Dew Point ( °F °C ) Humidity (%) Winds ( mph kmh ) Pressure ( in mb ) Visibility ( mi km ) Precip ( " mm )
12:53 am 00:53 Mostly Cloudy 38 3.3 25 -3.9 59 59 N 20 31 30.09 1019 10 16 0.00 0.00
1:53 am 01:53 Partly Cloudy 35 1.7 20 -6.7 54 54 NNE 24 39 30.14 1021 10 16 0.00 0.00
2:53 am 02:53 Mostly Clear 32 0 20 -6.7 61 61 N 20 31 30.16 1021 10 16 0.00 0.00
3:53 am 03:53 Mostly Clear 30 -1.1 17 -8.3 58 58 N 23 37 30.15 1021 10 16 0.00 0.00
4:53 am 04:53 Mostly Clear 29 -1.7 16 -8.9 58 58 N 18 30 30.17 1022 10 16 0.00 0.00
5:53 am 05:53 Partly Cloudy 27 -2.8 16 -8.9 63 63 N 18 30 30.19 1022 10 16 0.00 0.00
6:53 am 06:53 Partly Cloudy 26 -3.3 14 -10 60 60 N 22 35 30.20 1023 10 16 0.00 0.00
7:53 am 07:53 Mostly Sunny 26 -3.3 14 -10 60 60 N 23 37 30.21 1023 10 16 0.00 0.00
8:53 am 08:53 Mostly Sunny 28 -2.2 14 -10 55 55 N 23 37 30.23 1024 10 16 0.00 0.00
9:53 am 09:53 Mostly Sunny 29 -1.7 15 -9.4 56 56 N 22 35 30.23 1024 10 16 0.00 0.00
10:53 am 10:53 Partly Cloudy 32 0 16 -8.9 51 51 N 18 30 30.22 1024 10 16 0.00 0.00
11:53 am 11:53 Partly Cloudy 34 1.1 16 -8.9 47 47 N 20 31 30.20 1023 10 16 0.00 0.00
12:53 pm 12:53 Partly Cloudy 36 2.2 15 -9.4 42 42 N 24 39 30.19 1022 10 16 0.00 0.00
1:53 pm 13:53 Mostly Cloudy 36 2.2 16 -8.9 44 44 N 17 28 30.18 1022 10 16 0.00 0.00
2:53 pm 14:53 Mostly Cloudy 38 3.3 16 -8.9 40 40 N 22 35 30.17 1022 10 16 0.00 0.00
3:53 pm 15:53 Partly Cloudy 38 3.3 16 -8.9 40 40 N 17 28 30.18 1022 10 16 0.00 0.00
4:53 pm 16:53 Mostly Cloudy 37 2.8 16 -8.9 42 42 N 14 22 30.19 1022 10 16 0.00 0.00
5:53 pm 17:53 Partly Cloudy 35 1.7 16 -8.9 45 45 N 12 19 30.21 1023 10 16 0.00 0.00
6:53 pm 18:53 Partly Cloudy 36 2.2 17 -8.3 46 46 N 10 17 30.22 1023 10 16 0.00 0.00
7:53 pm 19:53 Partly Cloudy 34 1.1 16 -8.9 47 47 N 10 17 30.24 1024 10 16 0.00 0.00
8:53 pm 20:53 Mostly Clear 33 0.6 16 -8.9 49 49 N 9 15 30.24 1024 10 16 0.00 0.00
9:53 pm 21:53 Clear 31 -0.6 16 -8.9 53 53 N 7 11 30.26 1025 10 16 0.00 0.00
10:53 pm 22:53 Clear 27 -2.8 17 -8.3 66 66 NW 6 9 30.27 1025 10 16 0.00 0.00
11:53 pm 23:53 Clear 27 -2.8 18 -7.8 68 68 WNW 3 6 30.27 1025 10 16 0.00 0.00

Powered by AerisWeather